• In Kazakhstan
  • List of Countries
  • For 7 days
  • Water Temperature
  • Satellite Maps
  • Weather Map
  • News
  • Weather Widgets
  • user-avatar
    Login

    Hourly Weather Balarampur

    Today, 23 September, Saturday

    Time Temperature Precipitation Wind Pressure Humidity
    00:00 +28°C° 0 mm 1 mps 733 mmHg 82%
    01:00 +28°C° 0 mm 1 mps 733 mmHg 83%
    02:00 +28°C° 0 mm 1 mps 732 mmHg 84%
    03:00 +28°C° 0 mm 1 mps 732 mmHg 85%
    04:00 +27°C° 0 mm 1 mps 732 mmHg 86%
    05:00 +27°C° 0 mm 1 mps 733 mmHg 87%
    06:00 +27°C° 0 mm 1 mps 733 mmHg 87%
    07:00 +29°C° 0 mm 1 mps 733 mmHg 82%
    08:00 +30°C° 0 mm 2 mps 734 mmHg 77%
    09:00 +31°C° 0 mm 2 mps 734 mmHg 73%
    10:00 +32°C° 0.2 mm 2 mps 734 mmHg 68%
    11:00 +34°C° 0.2 mm 2 mps 734 mmHg 64%
    12:00 +35°C° 0 mm 2 mps 734 mmHg 60%
    13:00 +35°C° 0.1 mm 2 mps 733 mmHg 58%
    14:00 +35°C° 0.1 mm 1 mps 733 mmHg 56%
    15:00 +35°C° 0.1 mm 1 mps 732 mmHg 55%
    16:00 +34°C° 0.2 mm 1 mps 732 mmHg 59%
    17:00 +33°C° 0.2 mm 1 mps 732 mmHg 63%
    18:00 +30°C° 0.2 mm 0 mps 732 mmHg 68%
    19:00 +32°C° 0.1 mm 1 mps 732 mmHg 70%
    20:00 +31°C° 0.1 mm 1 mps 733 mmHg 72%
    21:00 +30°C° 0.1 mm 1 mps 733 mmHg 74%
    22:00 +30°C° 0.1 mm 1 mps 733 mmHg 76%
    23:00 +29°C° 0.1 mm 1 mps 733 mmHg 77%

    Tomorrow, 24 September, Sunday

    Time Temperature Precipitation Wind Pressure Humidity
    00:00 +29°C° 0.1 mm 1 mps 733 mmHg 79%
    01:00 +29°C° 0.4 mm 1 mps 733 mmHg 80%
    02:00 +28°C° 0.4 mm 1 mps 733 mmHg 81%
    03:00 +28°C° 0.4 mm 1 mps 732 mmHg 83%
    04:00 +28°C° 0 mm 1 mps 732 mmHg 83%
    05:00 +28°C° 0 mm 1 mps 732 mmHg 83%
    06:00 +28°C° 0 mm 1 mps 733 mmHg 84%
    07:00 +29°C° 0 mm 1 mps 733 mmHg 79%
    08:00 +30°C° 0 mm 1 mps 733 mmHg 74%
    09:00 +32°C° 0 mm 1 mps 734 mmHg 69%
    10:00 +33°C° 0 mm 1 mps 734 mmHg 64%
    11:00 +32°C° 0 mm 0 mps 733 mmHg 60%
    12:00 +34°C° 0 mm 0 mps 733 mmHg 55%
    13:00 +34°C° 0.1 mm 0 mps 732 mmHg 55%
    14:00 +34°C° 0.1 mm 0 mps 732 mmHg 54%
    15:00 +34°C° 0.1 mm 0 mps 731 mmHg 54%
    16:00 +33°C° 0.4 mm 0 mps 731 mmHg 59%
    17:00 +32°C° 0.4 mm 0 mps 731 mmHg 64%
    18:00 +33°C° 0.4 mm 1 mps 731 mmHg 68%
    19:00 +32°C° 1.8 mm 1 mps 731 mmHg 72%
    20:00 +31°C° 1.8 mm 1 mps 732 mmHg 75%
    21:00 +30°C° 1.8 mm 1 mps 732 mmHg 78%
    22:00 +30°C° 1.1 mm 1 mps 732 mmHg 78%
    23:00 +30°C° 1.1 mm 1 mps 732 mmHg 79%

    Day after tomorrow, 25 September, Monday

    Time Temperature Precipitation Wind Pressure Humidity
    00:00 +29°C° 1.1 mm 1 mps 732 mmHg 79%
    01:00 +29°C° 0 mm 1 mps 732 mmHg 80%
    02:00 +29°C° 0 mm 1 mps 731 mmHg 81%
    03:00 +29°C° 0 mm 1 mps 731 mmHg 81%
    04:00 +28°C° 0 mm 1 mps 731 mmHg 82%
    05:00 +26°C° 0 mm 0 mps 731 mmHg 82%
    06:00 +26°C° 0 mm 0 mps 731 mmHg 83%
    07:00 +27°C° 0 mm 0 mps 732 mmHg 78%
    08:00 +29°C° 0 mm 0 mps 732 mmHg 73%
    09:00 +30°C° 0 mm 0 mps 733 mmHg 68%
    10:00 +33°C° 0 mm 1 mps 732 mmHg 64%
    11:00 +34°C° 0 mm 1 mps 732 mmHg 60%
    12:00 +35°C° 0 mm 1 mps 732 mmHg 56%
    13:00 +35°C° 0.3 mm 1 mps 731 mmHg 56%
    14:00 +35°C° 0.3 mm 1 mps 730 mmHg 55%
    15:00 +35°C° 0.3 mm 1 mps 729 mmHg 55%
    16:00 +34°C° 1.7 mm 1 mps 729 mmHg 62%
    17:00 +33°C° 1.7 mm 1 mps 729 mmHg 68%
    18:00 +32°C° 1.7 mm 1 mps 729 mmHg 74%
    19:00 +31°C° 1.7 mm 1 mps 730 mmHg 76%
    20:00 +30°C° 1.7 mm 1 mps 731 mmHg 77%
    21:00 +30°C° 1.7 mm 1 mps 732 mmHg 79%
    22:00 +30°C° 0 mm 1 mps 731 mmHg 80%
    23:00 +29°C° 0 mm 1 mps 731 mmHg 80%

    26 September, Tuesday

    Time Temperature Precipitation Wind Pressure Humidity
    00:00 +29°C° 0 mm 1 mps 731 mmHg 81%
    01:00 +27°C° 0 mm 0 mps 731 mmHg 82%
    02:00 +26°C° 0 mm 0 mps 730 mmHg 82%
    03:00 +26°C° 0 mm 0 mps 730 mmHg 82%
    04:00 +26°C° 0 mm 0 mps 730 mmHg 83%
    05:00 +26°C° 0 mm 0 mps 731 mmHg 83%
    06:00 +26°C° 0 mm 0 mps 731 mmHg 83%
    07:00 +27°C° 0 mm 0 mps 731 mmHg 78%
    08:00 +29°C° 0 mm 0 mps 732 mmHg 73%
    09:00 +30°C° 0 mm 0 mps 733 mmHg 68%
    10:00 +33°C° 0.1 mm 1 mps 732 mmHg 64%
    11:00 +34°C° 0.1 mm 1 mps 732 mmHg 61%
    12:00 +36°C° 0.1 mm 2 mps 732 mmHg 57%
    13:00 +36°C° 0.5 mm 2 mps 731 mmHg 57%
    14:00 +36°C° 0.5 mm 2 mps 730 mmHg 56%
    15:00 +36°C° 0.5 mm 2 mps 730 mmHg 56%
    16:00 +35°C° 0 mm 2 mps 730 mmHg 60%
    17:00 +34°C° 0 mm 2 mps 730 mmHg 65%
    18:00 +32°C° 0 mm 1 mps 730 mmHg 69%
    19:00 +32°C° 0.1 mm 2 mps 731 mmHg 70%
    20:00 +31°C° 0.1 mm 2 mps 731 mmHg 72%
    21:00 +31°C° 0.1 mm 2 mps 732 mmHg 73%
    22:00 +30°C° 0 mm 2 mps 732 mmHg 75%
    23:00 +30°C° 0 mm 1 mps 732 mmHg 76%

    27 September, Wednesday

    Time Temperature Precipitation Wind Pressure Humidity
    00:00 +29°C° 0 mm 1 mps 731 mmHg 78%
    01:00 +29°C° 0 mm 1 mps 731 mmHg 79%
    02:00 +29°C° 0 mm 1 mps 731 mmHg 80%
    03:00 +29°C° 0 mm 1 mps 730 mmHg 80%
    04:00 +28°C° 0 mm 1 mps 731 mmHg 81%
    05:00 +28°C° 0 mm 1 mps 731 mmHg 82%
    06:00 +26°C° 0 mm 0 mps 731 mmHg 83%
    07:00 +27°C° 0.4 mm 0 mps 732 mmHg 79%
    08:00 +29°C° 0.4 mm 0 mps 732 mmHg 74%
    09:00 +30°C° 0.4 mm 0 mps 733 mmHg 70%
    10:00 +33°C° 0.7 mm 1 mps 733 mmHg 66%
    11:00 +34°C° 0.7 mm 1 mps 732 mmHg 62%
    12:00 +36°C° 0.7 mm 2 mps 732 mmHg 58%
    13:00 +36°C° 0.1 mm 2 mps 731 mmHg 57%
    14:00 +36°C° 0.1 mm 2 mps 731 mmHg 57%
    15:00 +36°C° 0.1 mm 2 mps 730 mmHg 56%
    16:00 +35°C° 0 mm 2 mps 730 mmHg 61%
    17:00 +34°C° 0 mm 2 mps 730 mmHg 65%
    18:00 +32°C° 0 mm 2 mps 730 mmHg 70%
    19:00 +31°C° 0.3 mm 2 mps 731 mmHg 71%
    20:00 +31°C° 0.3 mm 2 mps 732 mmHg 73%
    21:00 +30°C° 0.3 mm 2 mps 732 mmHg 74%
    22:00 +30°C° 0.4 mm 2 mps 732 mmHg 76%
    23:00 +29°C° 0.4 mm 2 mps 732 mmHg 78%

    28 September, Thursday

    Time Temperature Precipitation Wind Pressure Humidity
    00:00 +29°C° 0.4 mm 2 mps 731 mmHg 80%
    01:00 +29°C° 0.1 mm 1 mps 731 mmHg 81%
    02:00 +28°C° 0.1 mm 1 mps 731 mmHg 82%
    03:00 +28°C° 0.1 mm 1 mps 730 mmHg 82%
    04:00 +28°C° 0.1 mm 1 mps 731 mmHg 83%
    05:00 +26°C° 0.1 mm 0 mps 731 mmHg 84%
    06:00 +26°C° 0.1 mm 0 mps 731 mmHg 84%
    07:00 +29°C° 1 mm 1 mps 732 mmHg 81%
    08:00 +30°C° 1 mm 1 mps 732 mmHg 78%
    09:00 +31°C° 1 mm 2 mps 733 mmHg 75%
    10:00 +32°C° 1 mm 2 mps 732 mmHg 71%
    11:00 +34°C° 1 mm 3 mps 732 mmHg 66%
    12:00 +35°C° 1 mm 3 mps 732 mmHg 62%
    13:00 +34°C° 0.3 mm 3 mps 731 mmHg 63%
    14:00 +34°C° 0.3 mm 3 mps 730 mmHg 63%
    15:00 +34°C° 0.3 mm 3 mps 730 mmHg 64%
    16:00 +33°C° 0.3 mm 3 mps 730 mmHg 68%
    17:00 +31°C° 0.3 mm 3 mps 730 mmHg 72%
    18:00 +29°C° 0.3 mm 2 mps 731 mmHg 76%
    19:00 +29°C° 0.1 mm 2 mps 731 mmHg 75%
    20:00 +29°C° 0.1 mm 1 mps 732 mmHg 73%
    21:00 +28°C° 0.1 mm 1 mps 732 mmHg 72%
    22:00 +28°C° 0.1 mm 1 mps 732 mmHg 73%
    23:00 +28°C° 0.1 mm 1 mps 732 mmHg 74%
    Show more